This demonstration page uses our WeatherBlox Daily Observations layout. Learn more.

39.92423, -83.80882

Hourly Observations for December 4, 2019

Temp ( °F °C ) Dew Point ( °F °C ) Humidity (%) Winds ( mph kmh ) Pressure ( in mb ) Visibility ( mi km ) Precip ( " mm )
12:56 am 00:56 Cloudy 33 0.6 29 -1.7 85 85 SW 14 22 29.67 1005 10 16.0934 0 0
1:56 am 01:56 Cloudy 34 1.1 30 -1.1 85 85 WSW 12 19 29.67 1005 10 16.0934 0 0
2:56 am 02:56 Cloudy 34 1.1 30 -1.1 85 85 WSW 12 19 29.65 1004 10 16.0934 0 0
3:56 am 03:56 Clear 32 0 30 -1.1 92 92 SW 9 15 29.64 1004 10 16.0934 0 0
4:56 am 04:56 Clear 32 0 30 -1.1 92 92 SW 13 20 29.63 1003 10 16.0934 0 0
5:56 am 05:56 Clear 33 0.6 30 -1.1 89 89 WSW 15 24 29.64 1004 10 16.0934 0 0
6:56 am 06:56 Partly Cloudy 32 0 30 -1.1 92 92 WSW 10 17 29.65 1004 10 16.0934 0 0
7:48 am 07:48 Mostly Cloudy 32 0 30 -1 93 93 WSW 13 20 29.67 1005 10 16.0934 0 0
7:56 am 07:56 Cloudy 32 0 31 -0.6 96 96 WSW 13 20 29.65 1004 10 16.0934 0 0
8:56 am 08:56 Cloudy 32 0 31 -0.6 96 96 WSW 14 22 29.65 1004 10 16.0934 0 0
9:56 am 09:56 Mostly Cloudy 35 1.7 32 0 89 89 W 17 28 29.65 1004 10 16.0934 0 0
10:46 am 10:46 Partly Cloudy 37 3 32 0 81 81 W 18 30 29.67 1005 10 16.0934 0 0
10:56 am 10:56 Mostly Sunny 38 3.3 32 0 79 79 W 20 31 29.66 1005 10 16.0934 0 0
11:56 am 11:56 Sunny 41 5 32 0 70 70 W 18 30 29.65 1004 10 16.0934 0 0
12:56 pm 12:56 Sunny 43 6.1 32 0 65 65 W 22 35 29.64 1004 10 16.0934 0 0
1:56 pm 13:56 Sunny 45 7.2 33 0.6 63 63 W 23 37 29.63 1004 10 16.0934 0 0
2:56 pm 14:56 Sunny 44 6.7 32 0 63 63 W 26 43 29.65 1004 10 16.0934 0 0
3:56 pm 15:56 Sunny 44 6.7 32 0 63 63 W 22 35 29.67 1005 10 16.0934 0 0
4:56 pm 16:56 Mostly Cloudy 43 6.1 31 -0.6 63 63 W 18 30 29.69 1005 10 16.0934 0 0
5:56 pm 17:56 Cloudy 42 5.6 31 -0.6 65 65 W 21 33 29.72 1007 10 16.0934 0 0
6:56 pm 18:56 Cloudy 41 5 32 0 70 70 WNW 23 37 29.76 1008 10 16.0934 0 0
7:56 pm 19:56 Mostly Cloudy 39 3.9 31 -0.6 73 73 WNW 14 22 29.79 1009 10 16.0934 0 0
8:56 pm 20:56 Cloudy 39 3.9 31 -0.6 73 73 WNW 22 35 29.81 1010 10 16.0934 0 0
9:56 pm 21:56 Cloudy 38 3.3 31 -0.6 76 76 W 14 22 29.83 1010 10 16.0934 0 0
10:56 pm 22:56 Mostly Cloudy 37 2.8 31 -0.6 79 79 W 13 20 29.85 1011 10 16.0934 0 0
11:56 pm 23:56 Clear 35 1.7 31 -0.6 85 85 WNW 12 19 29.88 1012 10 16.0934 0 0

Powered by AerisWeather